QPF
0.00 0.00 0.01 0.01 0.01 0.01 0.00 0.00 0.00 0.00 0.00 0.00 0.00 0.00 0.00 0.00 0.00 0.00 0.00 0.01 0.01 0.01 0.01 0.01 0.01 0.01 0.01 0.01 0.01 0.00 0.00 0.00 0.00 0.00 0.00 0.00 0.00 0.00 0.00 0.00 0.00 0.01 0.01
0.00 0.00 0.01 0.01 0.01 0.01 0.01 0.00 0.00 0.00 0.00 0.00 0.00 0.00 0.00 0.00 0.00 0.00 0.00 0.01 0.01 0.01 0.01 0.01 0.01 0.01 0.00 0.00 0.00 0.00 0.00 0.00 0.00 0.00 0.00 0.00 0.00 0.00 0.00 0.00 0.00 0.01 0.01
0.00 0.00 0.01 0.01 0.01 0.01 0.00 0.00 0.00 0.00 0.00 0.00 0.00 0.00 0.00 0.00 0.00 0.00 0.00 0.01 0.01 0.00 0.00 0.00 0.00 0.00 0.00 0.00 0.00 0.00 0.00 0.00 0.00 0.00 0.00 0.00 0.01 0.01 0.01 0.01 0.01 0.01 0.01
0.00 0.00 0.01 0.01 0.01 0.01 0.00 0.00 0.00 0.00 0.00 0.00 0.00 0.00 0.00 0.00 0.01 0.01 0.01 0.01 0.00 0.00 0.00 0.00 0.00 0.00 0.00 0.00 0.00 0.00 0.00 0.00 0.00 0.00 0.00 0.01 0.01 0.02 0.01 0.01 0.01 0.01 0.01
0.00 0.00 0.01 0.01 0.01 0.01 0.00 0.00 0.00 0.00 0.00 0.00 0.00 0.00 0.00 0.00 0.01 0.01 0.01 0.00 0.00 0.00 0.00 0.00 0.00 0.00 0.00 0.00 0.00 0.00 0.00 0.00 0.00 0.00 0.00 0.01 0.01 0.02 0.01 0.01 0.01 0.01 0.02
0.00 0.00 0.01 0.01 0.01 0.01 0.00 0.00 0.01 0.00 0.00 0.00 0.00 0.00 0.00 0.01 0.01 0.01 0.00 0.00 0.00 0.00 0.00 0.00 0.00 0.00 0.00 0.00 0.00 0.00 0.00 0.00 0.00 0.00 0.00 0.00 0.01 0.01 0.01 0.00 0.00 0.01 0.01
0.00 0.00 0.01 0.02 0.01 0.01 0.01 0.01 0.00 0.01 0.00 0.00 0.00 0.00 0.01 0.01 0.00 0.00 0.00 0.00 0.00 0.00 0.00 0.00 0.00 0.00 0.00 0.00 0.00 0.00 0.00 0.00 0.00 0.00 0.00 0.00 0.01 0.00 0.00 0.00 0.00 0.00 0.00
0.00 0.01 0.02 0.02 0.01 0.01 0.01 0.01 0.00 0.00 0.00 0.00 0.00 0.00 0.01 0.01 0.00 0.00 0.00 0.00 0.00 0.00 0.00 0.00 0.00 0.00 0.00 0.00 0.00 0.00 0.00 0.00 0.00 0.00 0.00 0.00 0.00 0.00 0.00 0.00 0.00 0.00 0.00
0.01 0.01 0.02 0.02 0.02 0.01 0.01 0.01 0.00 0.00 0.00 0.00 0.00 0.01 0.01 0.00 0.00 0.00 0.00 0.00 0.00 0.00 0.00 0.00 0.00 0.00 0.00 0.00 0.00 0.00 0.00 0.00 0.00 0.00 0.00 0.00 0.00 0.00 0.00 0.00 0.00 0.00 0.00
0.01 0.01 0.02 0.02 0.02 0.02 0.01 0.01 0.00 0.00 0.00 0.00 0.00 0.00 0.00 0.00 0.00 0.00 0.00 0.00 0.00 0.00 0.00 0.00 0.00 0.00 0.00 0.00 0.00 0.00 0.00 0.00 0.00 0.00 0.00 0.00 0.00 0.00 0.00 0.00 0.00 0.00 0.00
0.03 0.02 0.02 0.02 0.02 0.02 0.01 0.01 0.00 0.00 0.00 0.00 0.00 0.00 0.00 0.00 0.00 0.00 0.00 0.00 0.00 0.00 0.00 0.00 0.00 0.00 0.00 0.00 0.00 0.00 0.00 0.00 0.00 0.00 0.00 0.00 0.00 0.00 0.00 0.00 0.00 0.00 0.00
0.02 0.02 0.02 0.02 0.02 0.01 0.01 0.01 0.00 0.00 0.00 0.00 0.00 0.00 0.00 0.00 0.00 0.00 0.00 0.00 0.00 0.00 0.00 0.00 0.00 0.00 0.00 0.00 0.00 0.00 0.00 0.00 0.00 0.00 0.00 0.00 0.00 0.00 0.00 0.00 0.00 0.00 0.00
0.01 0.02 0.02 0.02 0.01 0.01 0.01 0.01 0.00 0.00 0.00 0.00 0.00 0.00 0.00 0.00 0.00 0.00 0.00 0.00 0.00 0.00 0.00 0.00 0.00 0.00 0.00 0.00 0.00 0.00 0.00 0.00 0.00 0.00 0.00 0.00 0.00 0.00 0.00 0.00 0.00 0.00 0.00
0.01 0.02 0.02 0.02 0.02 0.01 0.01 0.00 0.00 0.00 0.00 0.00 0.00 0.00 0.00 0.00 0.00 0.00 0.00 0.00 0.00 0.00 0.00 0.00 0.00 0.00 0.00 0.00 0.00 0.00 0.00 0.00 0.00 0.00 0.00 0.00 0.00 0.00 0.01 0.00 0.00 0.00 0.00
0.02 0.03 0.03 0.02 0.02 0.01 0.01 0.01 0.00 0.00 0.00 0.00 0.00 0.00 0.00 0.00 0.00 0.00 0.00 0.00 0.00 0.00 0.00 0.00 0.00 0.00 0.00 0.00 0.00 0.00 0.00 0.00 0.00 0.00 0.00 0.00 0.00 0.00 0.01 0.01 0.01 0.00 0.01
0.04 0.03 0.02 0.02 0.02 0.01 0.01 0.01 0.00 0.00 0.00 0.00 0.00 0.00 0.00 0.00 0.00 0.00 0.00 0.00 0.00 0.00 0.00 0.00 0.00 0.00 0.00 0.00 0.00 0.00 0.00 0.00 0.00 0.00 0.00 0.00 0.00 0.00 0.00 0.00 0.01 0.01 0.01
0.05 0.05 0.04 0.03 0.03 0.02 0.01 0.01 0.01 0.00 0.00 0.00 0.00 0.00 0.00 0.00 0.00 0.00 0.00 0.00 0.00 0.00 0.00 0.00 0.00 0.00 0.00 0.00 0.00 0.00 0.00 0.00 0.00 0.00 0.00 0.00 0.00 0.00 0.00 0.00 0.01 0.02 0.02
0.07 0.07 0.06 0.06 0.05 0.04 0.03 0.01 0.01 0.01 0.00 0.00 0.00 0.00 0.00 0.00 0.00 0.00 0.00 0.00 0.00 0.00 0.00 0.00 0.00 0.00 0.00 0.00 0.00 0.00 0.00 0.00 0.00 0.00 0.00 0.00 0.00 0.00 0.00 0.00 0.01 0.01 0.02
0.08 0.08 0.07 0.08 0.07 0.06 0.06 0.04 0.02 0.01 0.01 0.00 0.00 0.00 0.00 0.00 0.00 0.00 0.00 0.00 0.00 0.00 0.00 0.00 0.00 0.00 0.00 0.00 0.00 0.00 0.00 0.00 0.00 0.00 0.00 0.00 0.00 0.00 0.00 0.00 0.00 0.00 0.01
0.08 0.10 0.09 0.08 0.08 0.09 0.09 0.07 0.04 0.03 0.02 0.01 0.00 0.00 0.00 0.00 0.00 0.00 0.00 0.00 0.00 0.00 0.00 0.00 0.00 0.00 0.00 0.00 0.00 0.00 0.00 0.00 0.00 0.00 0.00 0.00 0.00 0.00 0.00 0.00 0.00 0.00 0.00
0.05 0.07 0.09 0.10 0.10 0.09 0.07 0.05 0.04 0.03 0.03 0.02 0.02 0.01 0.01 0.00 0.00 0.00 0.00 0.00 0.01 0.00 0.00 0.00 0.00 0.00 0.00 0.00 0.00 0.00 0.00 0.00 0.00 0.00 0.00 0.00 0.00 0.01 0.01 0.01 0.01 0.01 0.00
0.05 0.05 0.06 0.07 0.09 0.08 0.08 0.09 0.07 0.05 0.04 0.03 0.03 0.02 0.02 0.01 0.01 0.00 0.00 0.01 0.01 0.00 0.00 0.00 0.01 0.00 0.00 0.00 0.00 0.01 0.01 0.00 0.00 0.00 0.00 0.00 0.00 0.00 0.00 0.00 0.00 0.00 0.00
0.03 0.04 0.04 0.05 0.07 0.07 0.09 0.10 0.10 0.08 0.05 0.04 0.03 0.02 0.02 0.02 0.01 0.00 0.01 0.01 0.01 0.01 0.01 0.01 0.01 0.01 0.01 0.01 0.01 0.02 0.02 0.01 0.00 0.00 0.00 0.00 0.00 0.00 0.00 0.00 0.00 0.00 0.00
0.02 0.03 0.03 0.04 0.05 0.05 0.06 0.06 0.06 0.06 0.04 0.04 0.04 0.04 0.03 0.02 0.02 0.01 0.01 0.01 0.01 0.01 0.01 0.01 0.02 0.02 0.02 0.02 0.01 0.01 0.02 0.02 0.02 0.01 0.00 0.00 0.00 0.00 0.00 0.00 0.00 0.00 0.00
0.01 0.02 0.02 0.02 0.02 0.03 0.03 0.04 0.04 0.03 0.03 0.03 0.03 0.02 0.02 0.02 0.02 0.02 0.01 0.01 0.01 0.01 0.01 0.01 0.01 0.01 0.02 0.02 0.02 0.01 0.01 0.01 0.02 0.02 0.02 0.00 0.00 0.00 0.00 0.00 0.00 0.00 0.00
0.00 0.01 0.01 0.01 0.01 0.01 0.02 0.03 0.03 0.02 0.02 0.02 0.02 0.01 0.01 0.02 0.02 0.02 0.02 0.02 0.02 0.01 0.01 0.01 0.02 0.01 0.01 0.01 0.02 0.02 0.02 0.02 0.01 0.01 0.02 0.01 0.01 0.00 0.00 0.00 0.00 0.00 0.00
MSLP
1014.90 1015.08 1015.36 1015.75 1016.20 1016.66 1017.08 1017.42 1017.66 1017.78 1017.84 1017.86 1017.89 1017.96 1018.09 1018.26 1018.45 1018.63 1018.76 1018.83 1018.86 1018.86 1018.86 1018.89 1018.97 1019.10 1019.27 1019.44 1019.59 1019.69 1019.75 1019.77 1019.75 1019.74 1019.73 1019.74 1019.76 1019.79 1019.80 1019.78 1019.72 1019.64 1019.53
1014.62 1014.88 1015.25 1015.73 1016.27 1016.80 1017.27 1017.64 1017.89 1018.03 1018.08 1018.09 1018.12 1018.20 1018.34 1018.52 1018.73 1018.93 1019.08 1019.19 1019.24 1019.27 1019.29 1019.35 1019.45 1019.59 1019.75 1019.91 1020.04 1020.12 1020.15 1020.14 1020.11 1020.09 1020.09 1020.11 1020.16 1020.20 1020.22 1020.21 1020.15 1020.04 1019.91
1014.36 1014.71 1015.17 1015.73 1016.33 1016.92 1017.44 1017.85 1018.12 1018.28 1018.34 1018.37 1018.41 1018.49 1018.63 1018.82 1019.03 1019.23 1019.39 1019.50 1019.57 1019.61 1019.67 1019.75 1019.87 1020.02 1020.19 1020.34 1020.45 1020.50 1020.50 1020.47 1020.43 1020.40 1020.40 1020.44 1020.51 1020.58 1020.62 1020.62 1020.56 1020.45 1020.30
1014.21 1014.62 1015.15 1015.77 1016.43 1017.06 1017.61 1018.04 1018.35 1018.52 1018.62 1018.67 1018.73 1018.82 1018.97 1019.15 1019.35 1019.54 1019.68 1019.79 1019.87 1019.93 1020.00 1020.11 1020.25 1020.42 1020.59 1020.74 1020.83 1020.86 1020.83 1020.77 1020.71 1020.67 1020.68 1020.73 1020.82 1020.91 1020.98 1020.99 1020.95 1020.84 1020.70
1014.18 1014.64 1015.22 1015.88 1016.56 1017.21 1017.78 1018.22 1018.54 1018.75 1018.87 1018.96 1019.05 1019.16 1019.32 1019.50 1019.69 1019.86 1019.99 1020.09 1020.17 1020.24 1020.33 1020.46 1020.62 1020.80 1020.98 1021.11 1021.19 1021.19 1021.14 1021.06 1020.98 1020.93 1020.94 1021.00 1021.11 1021.22 1021.30 1021.34 1021.31 1021.22 1021.09
1014.29 1014.78 1015.38 1016.05 1016.73 1017.37 1017.93 1018.37 1018.71 1018.93 1019.09 1019.21 1019.33 1019.48 1019.65 1019.84 1020.03 1020.19 1020.32 1020.41 1020.49 1020.58 1020.68 1020.83 1021.00 1021.19 1021.36 1021.48 1021.54 1021.53 1021.46 1021.35 1021.26 1021.20 1021.21 1021.28 1021.39 1021.51 1021.62 1021.67 1021.66 1021.59 1021.48
1014.52 1015.02 1015.61 1016.26 1016.91 1017.52 1018.05 1018.48 1018.81 1019.05 1019.24 1019.40 1019.56 1019.74 1019.94 1020.15 1020.34 1020.51 1020.65 1020.75 1020.84 1020.94 1021.06 1021.21 1021.39 1021.58 1021.74 1021.85 1021.89 1021.86 1021.77 1021.66 1021.56 1021.50 1021.51 1021.57 1021.69 1021.82 1021.93 1022.00 1022.00 1021.95 1021.86
1014.85 1015.32 1015.88 1016.48 1017.08 1017.64 1018.13 1018.54 1018.86 1019.11 1019.32 1019.51 1019.71 1019.93 1020.16 1020.39 1020.61 1020.80 1020.96 1021.09 1021.20 1021.32 1021.45 1021.60 1021.78 1021.95 1022.09 1022.18 1022.21 1022.17 1022.08 1021.97 1021.87 1021.82 1021.83 1021.90 1022.01 1022.14 1022.25 1022.33 1022.34 1022.31 1022.23
1015.20 1015.62 1016.13 1016.67 1017.21 1017.72 1018.17 1018.55 1018.85 1019.11 1019.34 1019.56 1019.79 1020.04 1020.30 1020.57 1020.82 1021.04 1021.23 1021.39 1021.53 1021.67 1021.81 1021.96 1022.12 1022.27 1022.39 1022.46 1022.47 1022.43 1022.34 1022.25 1022.17 1022.13 1022.15 1022.23 1022.34 1022.47 1022.58 1022.65 1022.68 1022.65 1022.59
1015.52 1015.89 1016.34 1016.82 1017.30 1017.75 1018.16 1018.52 1018.82 1019.08 1019.32 1019.56 1019.81 1020.09 1020.37 1020.66 1020.94 1021.20 1021.43 1021.62 1021.79 1021.95 1022.10 1022.25 1022.39 1022.51 1022.60 1022.65 1022.65 1022.60 1022.54 1022.47 1022.42 1022.41 1022.45 1022.53 1022.65 1022.78 1022.88 1022.96 1022.98 1022.96 1022.91
1015.78 1016.10 1016.48 1016.90 1017.33 1017.74 1018.12 1018.46 1018.76 1019.04 1019.29 1019.55 1019.81 1020.09 1020.39 1020.69 1020.99 1021.27 1021.53 1021.76 1021.96 1022.14 1022.30 1022.44 1022.55 1022.64 1022.70 1022.73 1022.72 1022.68 1022.63 1022.59 1022.58 1022.60 1022.67 1022.77 1022.90 1023.02 1023.13 1023.20 1023.23 1023.22 1023.18
1015.95 1016.22 1016.55 1016.92 1017.31 1017.69 1018.06 1018.40 1018.72 1019.00 1019.28 1019.54 1019.81 1020.08 1020.37 1020.67 1020.97 1021.27 1021.55 1021.80 1022.03 1022.22 1022.38 1022.51 1022.61 1022.67 1022.70 1022.70 1022.68 1022.65 1022.62 1022.61 1022.63 1022.69 1022.78 1022.90 1023.04 1023.16 1023.27 1023.34 1023.38 1023.38 1023.36
1016.03 1016.26 1016.55 1016.88 1017.24 1017.61 1017.98 1018.34 1018.67 1018.99 1019.28 1019.55 1019.81 1020.08 1020.34 1020.62 1020.91 1021.20 1021.49 1021.76 1022.00 1022.21 1022.37 1022.49 1022.57 1022.60 1022.60 1022.58 1022.55 1022.52 1022.51 1022.52 1022.57 1022.66 1022.77 1022.90 1023.04 1023.17 1023.28 1023.36 1023.41 1023.43 1023.43
1016.01 1016.22 1016.48 1016.78 1017.12 1017.48 1017.86 1018.25 1018.62 1018.97 1019.28 1019.57 1019.83 1020.07 1020.31 1020.56 1020.82 1021.10 1021.38 1021.66 1021.91 1022.12 1022.29 1022.40 1022.46 1022.47 1022.45 1022.41 1022.37 1022.34 1022.33 1022.36 1022.42 1022.51 1022.63 1022.76 1022.89 1023.02 1023.13 1023.22 1023.29 1023.34 1023.38
1015.92 1016.11 1016.34 1016.62 1016.94 1017.31 1017.71 1018.13 1018.54 1018.93 1019.27 1019.57 1019.83 1020.06 1020.27 1020.49 1020.72 1020.98 1021.25 1021.52 1021.78 1022.00 1022.17 1022.28 1022.33 1022.33 1022.29 1022.23 1022.17 1022.13 1022.12 1022.15 1022.20 1022.28 1022.38 1022.50 1022.61 1022.73 1022.84 1022.94 1023.04 1023.12 1023.21
1015.75 1015.93 1016.15 1016.41 1016.72 1017.09 1017.50 1017.95 1018.40 1018.84 1019.22 1019.54 1019.80 1020.02 1020.21 1020.40 1020.61 1020.85 1021.10 1021.37 1021.64 1021.86 1022.04 1022.15 1022.20 1022.19 1022.15 1022.08 1022.01 1021.95 1021.92 1021.93 1021.96 1022.01 1022.08 1022.16 1022.24 1022.34 1022.44 1022.55 1022.66 1022.79 1022.92
1015.54 1015.72 1015.92 1016.16 1016.45 1016.82 1017.25 1017.72 1018.21 1018.67 1019.09 1019.44 1019.72 1019.94 1020.12 1020.30 1020.49 1020.70 1020.95 1021.22 1021.48 1021.72 1021.91 1022.03 1022.09 1022.08 1022.03 1021.96 1021.88 1021.81 1021.76 1021.74 1021.73 1021.74 1021.76 1021.79 1021.84 1021.91 1021.99 1022.10 1022.23 1022.38 1022.55
1015.31 1015.49 1015.67 1015.89 1016.17 1016.52 1016.95 1017.44 1017.95 1018.44 1018.89 1019.26 1019.56 1019.79 1019.97 1020.14 1020.32 1020.54 1020.78 1021.05 1021.31 1021.56 1021.76 1021.89 1021.96 1021.97 1021.94 1021.87 1021.79 1021.72 1021.65 1021.59 1021.54 1021.50 1021.47 1021.46 1021.46 1021.49 1021.55 1021.65 1021.79 1021.96 1022.15
1015.08 1015.26 1015.43 1015.64 1015.89 1016.23 1016.65 1017.13 1017.65 1018.15 1018.62 1019.01 1019.32 1019.56 1019.76 1019.93 1020.11 1020.32 1020.56 1020.83 1021.10 1021.35 1021.57 1021.72 1021.81 1021.84 1021.83 1021.78 1021.71 1021.64 1021.56 1021.48 1021.40 1021.32 1021.25 1021.19 1021.15 1021.14 1021.18 1021.27 1021.41 1021.58 1021.78
1014.86 1015.05 1015.23 1015.42 1015.66 1015.98 1016.37 1016.84 1017.34 1017.84 1018.30 1018.69 1019.01 1019.26 1019.46 1019.64 1019.83 1020.04 1020.29 1020.55 1020.83 1021.08 1021.30 1021.47 1021.59 1021.65 1021.66 1021.64 1021.60 1021.55 1021.48 1021.40 1021.30 1021.20 1021.09 1021.00 1020.93 1020.91 1020.93 1021.01 1021.14 1021.30 1021.48
1014.67 1014.88 1015.07 1015.25 1015.48 1015.78 1016.15 1016.58 1017.05 1017.52 1017.96 1018.34 1018.65 1018.90 1019.11 1019.30 1019.49 1019.70 1019.94 1020.20 1020.47 1020.73 1020.96 1021.14 1021.27 1021.36 1021.41 1021.44 1021.43 1021.41 1021.36 1021.30 1021.21 1021.10 1020.99 1020.89 1020.82 1020.79 1020.81 1020.88 1021.01 1021.16 1021.32
1014.51 1014.75 1014.96 1015.15 1015.37 1015.65 1015.98 1016.37 1016.79 1017.22 1017.62 1017.97 1018.27 1018.51 1018.72 1018.91 1019.10 1019.31 1019.55 1019.80 1020.06 1020.30 1020.52 1020.71 1020.86 1020.97 1021.06 1021.13 1021.17 1021.20 1021.19 1021.16 1021.10 1021.02 1020.92 1020.84 1020.79 1020.78 1020.82 1020.91 1021.03 1021.18 1021.32
1014.38 1014.66 1014.89 1015.10 1015.32 1015.57 1015.87 1016.21 1016.58 1016.96 1017.31 1017.63 1017.90 1018.13 1018.33 1018.52 1018.71 1018.92 1019.14 1019.37 1019.61 1019.83 1020.04 1020.21 1020.37 1020.51 1020.63 1020.73 1020.83 1020.90 1020.95 1020.97 1020.95 1020.91 1020.86 1020.82 1020.81 1020.84 1020.92 1021.04 1021.20 1021.35 1021.47
1014.27 1014.58 1014.84 1015.07 1015.29 1015.53 1015.80 1016.10 1016.42 1016.74 1017.05 1017.32 1017.57 1017.79 1017.98 1018.17 1018.36 1018.56 1018.77 1018.98 1019.18 1019.37 1019.55 1019.71 1019.86 1020.00 1020.14 1020.28 1020.42 1020.54 1020.64 1020.71 1020.75 1020.77 1020.77 1020.79 1020.84 1020.94 1021.08 1021.26 1021.46 1021.64 1021.76
1014.16 1014.51 1014.79 1015.04 1015.27 1015.50 1015.74 1016.01 1016.29 1016.56 1016.84 1017.09 1017.32 1017.53 1017.72 1017.92 1018.11 1018.30 1018.49 1018.67 1018.84 1018.99 1019.12 1019.25 1019.38 1019.51 1019.66 1019.82 1019.99 1020.15 1020.30 1020.42 1020.51 1020.58 1020.65 1020.74 1020.86 1021.03 1021.25 1021.50 1021.76 1021.99 1022.14
1014.07 1014.43 1014.74 1015.00 1015.24 1015.47 1015.70 1015.94 1016.19 1016.45 1016.70 1016.94 1017.16 1017.38 1017.59 1017.79 1017.99 1018.17 1018.35 1018.49 1018.62 1018.73 1018.82 1018.90 1019.00 1019.12 1019.26 1019.43 1019.61 1019.80 1019.97 1020.13 1020.27 1020.39 1020.51 1020.66 1020.85 1021.10 1021.39 1021.72 1022.05 1022.34 1022.56
Thickness
5765 5762 5755 5753 5751 5750 5748 5747 5747 5745 5745 5744 5743 5742 5741 5740 5740 5739 5739 5739 5738 5737 5736 5734 5733 5731 5730 5728 5726 5725 5723 5721 5720 5718 5716 5715 5714 5712 5711 5710 5711 5709 5706
5767 5761 5753 5751 5749 5747 5746 5745 5744 5743 5742 5741 5740 5739 5738 5738 5737 5736 5736 5735 5734 5733 5732 5730 5729 5727 5725 5724 5722 5721 5719 5717 5716 5714 5713 5712 5710 5708 5707 5706 5705 5704 5702
5764 5758 5751 5749 5747 5745 5743 5742 5741 5740 5739 5738 5737 5737 5736 5735 5734 5733 5732 5731 5730 5729 5728 5726 5724 5723 5721 5720 5718 5717 5715 5714 5712 5711 5712 5711 5708 5705 5704 5702 5701 5700 5698
5760 5755 5750 5746 5744 5742 5741 5739 5738 5737 5736 5735 5734 5733 5733 5732 5731 5730 5729 5727 5726 5725 5723 5721 5720 5718 5717 5716 5714 5713 5711 5710 5709 5709 5710 5708 5705 5701 5700 5698 5697 5696 5694
5755 5752 5747 5743 5741 5739 5738 5736 5735 5734 5733 5732 5731 5730 5729 5729 5728 5726 5725 5723 5722 5721 5719 5717 5716 5715 5713 5712 5711 5709 5707 5706 5706 5706 5705 5703 5700 5697 5695 5694 5692 5691 5690
5752 5749 5743 5739 5738 5736 5735 5733 5732 5731 5730 5729 5728 5727 5726 5725 5724 5723 5721 5719 5718 5717 5715 5713 5712 5711 5710 5709 5707 5705 5703 5703 5704 5703 5701 5699 5696 5693 5691 5689 5688 5687 5685
5748 5745 5740 5736 5734 5733 5732 5730 5729 5728 5727 5726 5725 5724 5723 5722 5720 5719 5717 5715 5714 5713 5711 5710 5708 5707 5706 5704 5703 5701 5699 5699 5700 5698 5697 5694 5691 5688 5687 5685 5684 5682 5680
5743 5740 5736 5732 5730 5729 5728 5727 5726 5725 5724 5723 5722 5721 5720 5719 5717 5715 5714 5712 5710 5709 5708 5706 5705 5703 5702 5700 5698 5696 5695 5695 5695 5694 5692 5689 5685 5684 5682 5680 5679 5677 5675
5736 5736 5733 5730 5727 5725 5724 5723 5723 5722 5721 5720 5719 5718 5717 5715 5713 5712 5710 5708 5707 5705 5704 5702 5701 5699 5698 5696 5694 5692 5691 5691 5692 5690 5688 5685 5681 5679 5677 5676 5674 5672 5670
5731 5731 5730 5728 5726 5724 5721 5720 5719 5718 5717 5716 5715 5714 5713 5711 5710 5708 5707 5705 5704 5702 5700 5699 5697 5696 5694 5692 5690 5689 5688 5687 5688 5686 5684 5680 5676 5674 5672 5671 5669 5666 5664
5724 5726 5727 5726 5724 5722 5720 5717 5716 5714 5713 5713 5711 5710 5709 5709 5708 5705 5704 5702 5700 5698 5697 5695 5694 5692 5690 5688 5687 5685 5684 5686 5685 5682 5679 5675 5672 5670 5668 5666 5663 5661 5659
5718 5721 5722 5722 5720 5719 5717 5714 5714 5713 5711 5712 5711 5708 5708 5707 5706 5704 5700 5698 5697 5695 5693 5692 5690 5689 5688 5688 5685 5683 5684 5682 5681 5679 5675 5671 5668 5666 5664 5661 5659 5656 5654
5715 5716 5717 5717 5716 5715 5714 5713 5712 5711 5709 5709 5708 5707 5705 5704 5702 5700 5699 5696 5694 5692 5692 5689 5688 5688 5687 5686 5684 5683 5681 5680 5678 5676 5672 5667 5664 5662 5660 5657 5654 5652 5649
5710 5712 5713 5713 5713 5712 5711 5709 5709 5708 5707 5706 5705 5704 5703 5701 5700 5699 5697 5696 5694 5692 5691 5689 5688 5686 5684 5683 5681 5680 5678 5676 5674 5672 5669 5665 5661 5659 5656 5654 5651 5648 5645
5705 5707 5709 5709 5709 5708 5707 5706 5706 5705 5704 5703 5701 5701 5700 5699 5698 5696 5695 5692 5691 5690 5689 5687 5686 5684 5682 5681 5679 5676 5675 5673 5671 5668 5666 5662 5658 5655 5653 5650 5647 5644 5641
5701 5703 5705 5706 5706 5705 5704 5703 5702 5702 5700 5700 5698 5698 5696 5695 5694 5693 5691 5689 5688 5687 5686 5684 5683 5681 5679 5678 5676 5674 5672 5670 5668 5665 5663 5660 5656 5653 5650 5647 5644 5641 5638
5696 5699 5700 5701 5701 5701 5700 5699 5698 5697 5697 5696 5695 5694 5692 5691 5690 5689 5688 5686 5685 5684 5682 5680 5679 5677 5676 5674 5673 5672 5670 5668 5665 5663 5660 5657 5655 5651 5648 5644 5641 5638 5635
5691 5693 5695 5695 5696 5696 5695 5695 5694 5694 5694 5693 5692 5691 5689 5688 5686 5685 5684 5683 5682 5680 5678 5677 5676 5675 5673 5671 5671 5670 5667 5665 5662 5660 5657 5654 5652 5649 5646 5642 5638 5635 5631
5686 5687 5688 5689 5690 5691 5690 5689 5689 5689 5689 5689 5688 5687 5686 5685 5683 5682 5681 5680 5679 5677 5675 5673 5672 5671 5670 5668 5667 5666 5664 5662 5660 5656 5654 5652 5649 5645 5642 5639 5635 5631 5627
5680 5682 5683 5684 5685 5685 5684 5683 5683 5683 5684 5684 5683 5683 5682 5681 5680 5678 5677 5677 5675 5673 5672 5670 5668 5666 5665 5664 5662 5661 5661 5660 5657 5654 5652 5649 5645 5641 5637 5634 5631 5628 5623
5672 5674 5677 5678 5679 5679 5678 5677 5676 5677 5678 5678 5678 5678 5677 5677 5676 5674 5673 5672 5671 5670 5669 5667 5665 5662 5660 5658 5655 5656 5658 5657 5655 5652 5648 5645 5641 5636 5632 5628 5625 5622 5619
5665 5667 5669 5671 5672 5673 5673 5673 5673 5673 5672 5672 5672 5671 5671 5671 5670 5669 5669 5668 5666 5665 5664 5662 5659 5657 5656 5653 5650 5648 5649 5653 5653 5647 5642 5638 5634 5630 5626 5622 5618 5614 5611
5656 5659 5661 5664 5665 5666 5666 5666 5665 5664 5664 5664 5665 5665 5665 5665 5664 5664 5663 5662 5661 5660 5659 5657 5655 5652 5651 5649 5646 5642 5640 5643 5645 5643 5637 5631 5627 5622 5618 5614 5610 5606 5602
5648 5650 5653 5655 5656 5657 5658 5659 5660 5659 5659 5660 5660 5659 5658 5657 5657 5656 5656 5656 5655 5654 5653 5652 5650 5648 5646 5644 5641 5639 5637 5636 5631 5632 5630 5625 5619 5614 5610 5605 5601 5597 5593
5637 5640 5643 5645 5647 5649 5650 5652 5652 5653 5654 5652 5651 5650 5650 5649 5648 5648 5648 5648 5647 5647 5646 5645 5644 5642 5640 5639 5637 5634 5630 5627 5624 5620 5619 5618 5612 5606 5600 5595 5591 5587 5583
5628 5630 5633 5635 5637 5639 5640 5642 5643 5644 5643 5643 5642 5642 5642 5641 5640 5639 5639 5639 5639 5639 5638 5638 5636 5635 5634 5632 5630 5628 5624 5621 5619 5615 5612 5610 5605 5599 5591 5585 5580 5576 5572